Location: Ammerl�gen
(47.2167°N, 9.6000°E)
Time: 20:46:55
(UTC+00:00)

DMSP 5D-2 F13 DEB - Pass Details

Date: 01 November 2021
Orbit: 758 x 780 km, 98.7° (Epoch: 03 December)

Event Time Altitude Azimuth Distance (km) Brightness Sun altitude
Exits shadow 18:02:50 20° 30° (NNE) 1,724 ? -20.5°
Drops below altitude 10° 18:04:59 10° 9° (N) 2,299 ? -20.8°
Sets 18:07:39 0° 356° (N) 3,229 ? -21.3°
